Location: Devargunta
(16.7631°N, 80.9077°E)
Time: 19:22:31
(UTC+00:00)

Chandra Rocket (1) - Pass Details

Date: 19 January 2021
Orbit: 347 x 11000 km, 28.4° (Epoch: 04 March)

Event Time Altitude Azimuth Distance (km) Brightness Sun altitude
Exits shadow 23:00:51 18° 33° (NNE) 1,643 4.4 -30.1°
Drops below altitude 10° 23:01:46 10° 43° (NE) 1,919 4.9 -29.9°
Sets 23:03:22 0° 54° (NE) 2,528 5.7 -29.6°
